Location: Bouillancy
(49.1149°N, 2.9308°E)
Time: 21:57:52
(UTC+00:00)

RESURS DK-1 - Pass Details

Date: 30 September 2020
Orbit: 553 x 564 km, 69.9° (Epoch: 24 October)

Event Time Altitude Azimuth Distance (km) Brightness Sun altitude
Rises 19:17:38 0° 207° (SSW) 2,733 6.0 -18.5°
Reaches altitude 10° 19:19:50 10° 207° (SSW) 1,844 5.1 -18.9°
Maximum altitude 19:23:57 86° 120° (ESE) 570 2.2 -19.5°
Drops below altitude 10° 19:28:08 10° 31° (NNE) 1,864 4.9 -20.1°
Enters shadow 19:29:48 - 31° (NNE) 2,546 5.6 -20.4°
